Regional Weather Roundup
Issued by NWS

Home | Current Version | Previous Version | Text Only | Print | Product List | Glossary Off
Versions: 1 2 3 4 5 6 7 8 9 10 11 12 13 14 15 16 17 18 19 20 21 22 23 24 25 26 27 28 29 30 31 32 33 34 35 36 37 38 39 40 41 42 43 44 45 46 47 48 49 50

000
ASUS45 KCYS 221310
RWRWY

WYOMING REGIONAL WEATHER ROUNDUP
NATIONAL WEATHER SERVICE CHEYENNE WY
700 AM MDT FRI MAY 22 2015

NOTE:  "FAIR" INDICATES FEW OR NO CLOUDS BELOW 12,000 FEET
WITH NO SIGNIFICANT WEATHER AND/OR OBSTRUCTIONS TO VISIBILITY.

WYZ001-221400-
YELLOWSTONE NATIONAL PARK

CITY           SKY/WX    TMP DP  RH WIND       PRES   REMARKS
LK YELLOWSTONE   N/A     34  32  92 CALM      30.06S
W YELLOWSTONE  NOT AVBL

$$
WYZ002>013-054>058-071-098>099-221400-
NORTHERN WYOMING

CITY           SKY/WX    TMP DP  RH WIND       PRES   REMARKS
JACKSON        PTSUNNY   45  43  93 CALM      30.01R
CODY           FAIR      46  43  87 CALM      29.97S
GREYBULL       FAIR      51  46  83 CALM      29.94S
WORLAND        PTSUNNY   49  46  90 CALM      29.94F
SHERIDAN       FAIR      45  42  89 NW6       29.97R
BUFFALO        CLOUDY    47  44  90 S12       29.99S
GILLETTE       CLOUDY    49  44  83 SE8       30.01F
HULETT         FAIR      50  43  76 E8        30.07S
NEWCASTLE      FAIR      50  41  71 SE13G20   30.06S

$$
WYZ014>020-022>026-101>103-221400-
CENTRAL WYOMING

CITY           SKY/WX    TMP DP  RH WIND       PRES   REMARKS
BIG PINEY      NOT AVBL
PINEDALE       FAIR      37  37 100 CALM      30.03S
DUBOIS         CLOUDY    39  36  87 NW7       30.02S WCI  34
LANDER         CLOUDY    46  41  82 W9        29.97S
RIVERTON       NOT AVBL
CASPER         NOT AVBL
DOUGLAS        CLOUDY    48  44  86 SE16      30.02S

$$
WYZ021-027>030-104>119-221400-
SOUTHERN WYOMING

CITY           SKY/WX    TMP DP  RH WIND       PRES   REMARKS
EVANSTON       NOT AVBL
KEMMERER       FAIR      37  36  93 N7        30.01S WCI  32
FORT BRIDGER   MOSUNNY   41  41 100 N5        30.03R
ROCK SPRINGS   CLOUDY    42  38  85 NE3       29.99F
DIXON          CLOUDY    47  42  84 E7        30.02S
RAWLINS        CLOUDY    44  42  93 SE6       30.00S
SARATOGA       DRIZZLE   43  41  93 CALM      30.02S
LARAMIE        CLOUDY    41  39  93 S13       30.01S
CHEYENNE       LGT RAIN  42  41  96 SE15      30.03S VSB 1/4
TORRINGTON     CLOUDY    48  44  86 SE9       30.04S
PINE BLUFFS    RAIN      43  43 100 SE12      30.06R

$$


USA.gov is the U.S. government's official web portal to all federal, state and local government web resources and services.